Regional Weather Roundup
Issued by NWS

Home | Current Version | Previous Version | Graphics & Text | Print | Product List | Glossary On
Versions: 1 2 3 4 5 6 7 8 9 10 11 12 13 14 15 16 17 18 19 20 21 22 23 24 25 26 27 28 29 30 31 32 33 34 35 36 37 38 39 40 41 42 43 44 45 46 47 48 49 50
000
ASUS43 KMPX 231401
RWRMN
WEATHER ROUNDUP FOR MINNESOTA
NATIONAL WEATHER SERVICE TWIN CITIES/CHANHASSEN MN
900 AM CDT MON OCT 23 2017


NOTE: "FAIR" INDICATES FEW OR NO CLOUDS BELOW 12,000 FEET WITH NO
SIGNIFICANT WEATHER AND/OR OBSTRUCTIONS TO VISIBILITY. N/A MEANS
CURRENT SKY AND/OR WEATHER CONDITIONS ARE NOT AVAILABLE.

MNZ060>063-068>070-231500-
   Twin Cities Metro

CITY           SKY/WX    TMP DP  RH WIND       PRES   REMARKS
TWIN CITIES    MOSUNNY   52  39  61 W12       29.76F
ST PAUL        SUNNY     51  38  60 VRB6      29.77F
CRYSTAL        MOSUNNY   52  37  56 W10       29.75S
BLAINE         MOSUNNY   54  37  54 SW6       29.75F
EDEN PRAIRIE   MOSUNNY   52  39  61 W8        29.75F
$$
MNZ001>005-007-008-013>017-022>024-027-028-231500-
   Northwest Minnesota

CITY           SKY/WX    TMP DP  RH WIND       PRES   REMARKS
FOSSTON        CLOUDY    43  39  87 W17G23    29.73R
PARK RAPIDS    LGT RAIN  47  39  74 W17G33    29.73R
MAHNOMEN       CLOUDY    44  39  84 W17G24    29.76R
$$
MNZ006-009>011-018-025>026-231500-
   North Central Minnesota

CITY           SKY/WX    TMP DP  RH WIND       PRES   REMARKS
BAUDETTE       CLOUDY    49  46  90 W10       29.63R
INTL FALLS     CLOUDY    48  45  89 SW7       29.60S
WASKISH        CLOUDY    46  43  87 W15G22    29.66R
BIG FORK       MOSUNNY   50  43  76 W6        29.66R
LONGVILLE      SUNNY     50  43  76 W10G16    29.69R
GRAND RAPIDS   SUNNY     51  40  65 VRB7      29.70R
COOK           CLOUDY    46  39  76 S3        29.65S
WALKER         FAIR      48  39  71 W18G28    29.71R
$$
MNZ012-019>021-037-231500-
   Northeast Minnesota

CITY           SKY/WX    TMP DP  RH WIND       PRES   REMARKS
DULUTH         PTSUNNY   51  37  58 SW12      29.68S
HIBBING        SUNNY     48  37  65 S5        29.66S
SILVER BAY     LGT RAIN  50  43  76 CALM      29.68R
$$
MNZ029>031-032-039>041-046>048-054>057-064-231500-
   West Central Minnesota

CITY           SKY/WX    TMP DP  RH WIND       PRES   REMARKS
WHEATON        CLOUDY    50  34  53 W21G29    29.86R
ALEXANDRIA     MOSUNNY   51  37  58 NW23G35   29.79S
ELBOW LAKE     FAIR      49  37  64 NW15G24   29.81S
WADENA         SUNNY     48  37  66 W12G23    29.75R
APPLETON       SUNNY     52  37  58 W17G23    29.84R
WILLMAR        FAIR      50  43  76 W14       29.83R
$$
MNZ033>034-036-042>043-049>051-058-059-231500-
   Central Minnesota

CITY           SKY/WX    TMP DP  RH WIND       PRES   REMARKS
ST CLOUD       PTSUNNY   52  43  71 W15       29.76R
BRAINERD       SUNNY     52  41  66 W13G24    29.73R
$$
MNZ037-044-045-052-053-231500-
   East Central Minnesota

CITY           SKY/WX    TMP DP  RH WIND       PRES   REMARKS
PRINCETON      MOSUNNY   52  39  62 SW9       29.75R
MORA           SUNNY     48  36  61 SW7       29.74F
CAMBRIDGE      SUNNY     52  37  58 SW5       29.74S
MOOSE LAKE     CLOUDY    48  36  61 SW7       29.69S
CLOQUET          N/A     50  34  53 SW8       29.69R VSB 1
MCGREGOR       SUNNY     50  41  71 SW6       29.70S
$$
MNZ071>073-080-081-089-090-097-098-231500-
   Southwest Minnesota

CITY           SKY/WX    TMP DP  RH WIND       PRES   REMARKS
MARSHALL       PTSUNNY   51  39  63 NW21G28   29.87R
REDWOOD FALLS  CLOUDY    53  39  59 NW16      29.83R
WORTHINGTON    PTSUNNY   51  40  65 NW17G23   29.90R
SLAYTON        MOSUNNY   51  39  64 W16       29.89S
$$
MNZ065>067-074>077-082>085-091>093-231500-
   South Central Minnesota

CITY           SKY/WX    TMP DP  RH WIND       PRES   REMARKS
MANKATO        PTSUNNY   50  40  68 W13       29.82R
FAIRMONT       MOSUNNY   54  41  61 NW16      29.86R
$$
MNZ078>079-086>088-094>096-231500-
   Southeast Minnesota

CITY           SKY/WX    TMP DP  RH WIND       PRES   REMARKS
ROCHESTER      SUNNY     48  39  71 SW10      29.82R
RED WING       SUNNY     50  36  57 SE5       29.78S
AUSTIN         SUNNY     45  39  81 S7        29.82R
$$
ABBREVIATIONS USED IN REMARKS
   TC - TEMPERATURES IN CELSIUS
  WCI - WIND CHILL INDEX
   HX - HEAT INDEX
  VSB - VISIBILITY
$$



USA.gov is the U.S. government's official web portal to all federal, state and local government web resources and services.